Location: Cincinnati Observatory Center
(39.1389°N, 84.4225°W)
Time: 18:11:25
(UTC-04:00)

HST - Visible Passes

Search period start: 31 October 2014 00:00
Search period end: 09 November 2014 23:00
Orbit: 546 x 550 km, 28.5° (Epoch: 31 October)

Date Brightness Start Highest point End Pass type
(mag) Time Alt. Az. Time Alt. Az. Time Alt. Az.
31 Oct 2.9 20:04:42 10° SW 20:07:34 18° S 20:09:30 14° SSE visible
01 Nov 3.1 19:57:23 10° SW 20:00:07 17° S 20:02:40 11° SSE visible
02 Nov 3.2 18:50:10 10° SW 18:52:38 15° S 18:55:07 10° SSE visible
03 Nov 3.4 18:43:04 10° SW 18:45:09 14° SSW 18:47:15 10° SSE visible
04 Nov 3.5 18:36:13 10° SW 18:37:39 12° SSW 18:39:05 10° S visible
